When you browse on this site, cookies collect data to enhance your experience and personalize the content and advertising you see.
Visit our Privacy Policy to learn more. By continuing to use the site, you agree to this use of cookies and data.
EN

Hourly Weather Santa Cruz

Today, 13 July, Monday

Time Temperature Precipitation Wind Pressure Humidity
00:00 +25°C° 0 mm 3 mps 723 mmHg 74%
01:00 +24°C° 0 mm 3 mps 722 mmHg 75%
02:00 +24°C° 0 mm 3 mps 722 mmHg 77%
03:00 +24°C° 0.1 mm 3 mps 722 mmHg 78%
04:00 +24°C° 0.1 mm 2 mps 722 mmHg 78%
05:00 +24°C° 0.1 mm 2 mps 722 mmHg 79%
06:00 +24°C° 0.1 mm 1 mps 723 mmHg 79%
07:00 +24°C° 0.1 mm 1 mps 723 mmHg 78%
08:00 +24°C° 0.1 mm 1 mps 724 mmHg 77%
09:00 +26°C° 0.1 mm 2 mps 724 mmHg 69%
10:00 +28°C° 0.1 mm 4 mps 724 mmHg 62%
11:00 +30°C° 0.1 mm 5 mps 725 mmHg 54%
12:00 +32°C° 0 mm 5 mps 724 mmHg 51%
13:00 +33°C° 0 mm 5 mps 723 mmHg 48%
14:00 +33°C° 0 mm 5 mps 723 mmHg 45%
15:00 +33°C° 0 mm 4 mps 723 mmHg 47%
16:00 +31°C° 0 mm 3 mps 723 mmHg 50%
17:00 +30°C° 0 mm 2 mps 723 mmHg 52%
18:00 +28°C° 0.1 mm 2 mps 723 mmHg 59%
19:00 +27°C° 0.1 mm 2 mps 724 mmHg 67%
20:00 +25°C° 0.1 mm 2 mps 724 mmHg 74%
21:00 +24°C° 0.1 mm 3 mps 725 mmHg 74%
22:00 +22°C° 0.1 mm 5 mps 726 mmHg 74%
23:00 +22°C° 0.1 mm 6 mps 726 mmHg 75%

Tomorrow, 14 July, Tuesday

Time Temperature Precipitation Wind Pressure Humidity
00:00 +21°C° 0.2 mm 6 mps 726 mmHg 77%
01:00 +20°C° 0.2 mm 6 mps 726 mmHg 80%
02:00 +19°C° 0.2 mm 6 mps 726 mmHg 82%
03:00 +19°C° 0.5 mm 5 mps 726 mmHg 84%
04:00 +19°C° 0.5 mm 5 mps 727 mmHg 85%
05:00 +17°C° 0.5 mm 5 mps 727 mmHg 87%
06:00 +17°C° 0.2 mm 5 mps 727 mmHg 86%
07:00 +17°C° 0.2 mm 5 mps 728 mmHg 85%
08:00 +17°C° 0.2 mm 5 mps 728 mmHg 84%
09:00 +17°C° 0.1 mm 5 mps 728 mmHg 82%
10:00 +19°C° 0.1 mm 5 mps 729 mmHg 79%
11:00 +19°C° 0.1 mm 5 mps 729 mmHg 77%
12:00 +19°C° 0.1 mm 4 mps 728 mmHg 75%
13:00 +19°C° 0.1 mm 4 mps 727 mmHg 73%
14:00 +19°C° 0.1 mm 4 mps 727 mmHg 71%
15:00 +20°C° 0 mm 3 mps 726 mmHg 69%
16:00 +20°C° 0 mm 3 mps 726 mmHg 66%
17:00 +20°C° 0 mm 3 mps 726 mmHg 64%
18:00 +20°C° 0 mm 3 mps 726 mmHg 65%
19:00 +20°C° 0 mm 3 mps 726 mmHg 65%
20:00 +19°C° 0 mm 2 mps 726 mmHg 65%
21:00 +19°C° 0 mm 2 mps 726 mmHg 65%
22:00 +20°C° 0 mm 2 mps 726 mmHg 64%
23:00 +20°C° 0 mm 2 mps 727 mmHg 63%

Day after tomorrow, 15 July, Wednesday

Time Temperature Precipitation Wind Pressure Humidity
00:00 +20°C° 0 mm 2 mps 726 mmHg 64%
01:00 +19°C° 0 mm 2 mps 725 mmHg 65%
02:00 +19°C° 0 mm 2 mps 725 mmHg 65%
03:00 +20°C° 0 mm 1 mps 725 mmHg 68%
04:00 +19°C° 0 mm 1 mps 724 mmHg 70%
05:00 +19°C° 0 mm 1 mps 724 mmHg 72%
06:00 +19°C° 0 mm 1 mps 724 mmHg 69%
07:00 +20°C° 0 mm 1 mps 725 mmHg 66%
08:00 +19°C° 0 mm 0 mps 725 mmHg 62%
09:00 +23°C° 0 mm 1 mps 725 mmHg 56%
10:00 +26°C° 0 mm 1 mps 725 mmHg 49%
11:00 +28°C° 0 mm 2 mps 725 mmHg 43%
12:00 +29°C° 0 mm 3 mps 724 mmHg 42%
13:00 +30°C° 0 mm 4 mps 723 mmHg 41%
14:00 +33°C° 0 mm 5 mps 722 mmHg 40%
15:00 +32°C° 0 mm 5 mps 722 mmHg 43%
16:00 +30°C° 0 mm 5 mps 721 mmHg 45%
17:00 +30°C° 0 mm 5 mps 721 mmHg 48%
18:00 +28°C° 0 mm 4 mps 721 mmHg 54%
19:00 +27°C° 0 mm 3 mps 721 mmHg 59%
20:00 +25°C° 0 mm 3 mps 722 mmHg 65%
21:00 +25°C° 0 mm 3 mps 722 mmHg 69%
22:00 +24°C° 0 mm 2 mps 722 mmHg 73%
23:00 +23°C° 0 mm 2 mps 723 mmHg 76%

16 July, Thursday

Time Temperature Precipitation Wind Pressure Humidity
00:00 +23°C° 0 mm 2 mps 723 mmHg 76%
01:00 +23°C° 0 mm 2 mps 723 mmHg 76%
02:00 +23°C° 0 mm 2 mps 722 mmHg 76%
03:00 +23°C° 0 mm 2 mps 722 mmHg 76%
04:00 +21°C° 0 mm 2 mps 722 mmHg 76%
05:00 +21°C° 0 mm 2 mps 722 mmHg 77%
06:00 +23°C° 0 mm 2 mps 723 mmHg 75%
07:00 +23°C° 0 mm 2 mps 723 mmHg 73%
08:00 +24°C° 0 mm 2 mps 724 mmHg 71%
09:00 +27°C° 0 mm 3 mps 724 mmHg 60%
10:00 +30°C° 0 mm 4 mps 724 mmHg 49%
11:00 +34°C° 0 mm 6 mps 724 mmHg 38%
12:00 +34°C° 0 mm 6 mps 723 mmHg 36%
13:00 +35°C° 0 mm 6 mps 723 mmHg 35%
14:00 +36°C° 0 mm 7 mps 722 mmHg 33%
15:00 +35°C° 0 mm 6 mps 721 mmHg 35%
16:00 +34°C° 0 mm 6 mps 721 mmHg 37%
17:00 +33°C° 0 mm 5 mps 721 mmHg 40%
18:00 +32°C° 0 mm 4 mps 721 mmHg 45%
19:00 +29°C° 0 mm 4 mps 721 mmHg 50%
20:00 +27°C° 0 mm 3 mps 722 mmHg 56%
21:00 +27°C° 0 mm 3 mps 722 mmHg 59%
22:00 +26°C° 0 mm 3 mps 722 mmHg 63%
23:00 +25°C° 0 mm 2 mps 722 mmHg 66%

17 July, Friday

Time Temperature Precipitation Wind Pressure Humidity
00:00 +25°C° 0 mm 3 mps 722 mmHg 67%
01:00 +25°C° 0 mm 3 mps 722 mmHg 68%
02:00 +25°C° 0 mm 3 mps 722 mmHg 69%
03:00 +25°C° 0 mm 3 mps 722 mmHg 70%
04:00 +24°C° 0 mm 3 mps 722 mmHg 71%
05:00 +24°C° 0 mm 3 mps 722 mmHg 72%
06:00 +25°C° 0 mm 3 mps 722 mmHg 70%
07:00 +26°C° 0 mm 4 mps 723 mmHg 67%
08:00 +26°C° 0 mm 4 mps 723 mmHg 65%
09:00 +29°C° 0 mm 5 mps 723 mmHg 56%
10:00 +32°C° 0 mm 6 mps 723 mmHg 48%
11:00 +34°C° 0 mm 7 mps 723 mmHg 39%
12:00 +35°C° 0 mm 7 mps 723 mmHg 39%
13:00 +35°C° 0 mm 7 mps 722 mmHg 38%
14:00 +35°C° 0 mm 8 mps 721 mmHg 37%
15:00 +35°C° 0 mm 7 mps 721 mmHg 38%
16:00 +34°C° 0 mm 7 mps 720 mmHg 40%
17:00 +33°C° 0 mm 7 mps 720 mmHg 41%
18:00 +32°C° 0 mm 6 mps 720 mmHg 43%
19:00 +30°C° 0 mm 6 mps 720 mmHg 46%
20:00 +29°C° 0 mm 6 mps 720 mmHg 48%
21:00 +29°C° 0 mm 6 mps 720 mmHg 49%
22:00 +29°C° 0 mm 6 mps 721 mmHg 51%
23:00 +28°C° 0 mm 6 mps 721 mmHg 52%

18 July, Saturday

Time Temperature Precipitation Wind Pressure Humidity
00:00 +28°C° 0 mm 6 mps 721 mmHg 53%
01:00 +28°C° 0 mm 6 mps 720 mmHg 55%
02:00 +28°C° 0 mm 6 mps 720 mmHg 56%
03:00 +27°C° 0 mm 6 mps 720 mmHg 56%
04:00 +27°C° 0 mm 6 mps 720 mmHg 56%
05:00 +27°C° 0 mm 6 mps 720 mmHg 57%
06:00 +27°C° 0 mm 7 mps 720 mmHg 56%
07:00 +28°C° 0 mm 7 mps 721 mmHg 55%
08:00 +28°C° 0 mm 7 mps 721 mmHg 54%
09:00 +31°C° 0 mm 8 mps 721 mmHg 48%
10:00 +32°C° 0 mm 9 mps 721 mmHg 43%
11:00 +34°C° 0 mm 9 mps 721 mmHg 38%
12:00 +35°C° 0 mm 9 mps 721 mmHg 36%
13:00 +35°C° 0 mm 9 mps 720 mmHg 34%
14:00 +37°C° 0 mm 9 mps 719 mmHg 32%
15:00 +35°C° 0 mm 9 mps 719 mmHg 33%
16:00 +34°C° 0 mm 8 mps 719 mmHg 34%
17:00 +33°C° 0 mm 7 mps 718 mmHg 35%
18:00 +33°C° 0 mm 7 mps 719 mmHg 37%
19:00 +32°C° 0 mm 6 mps 719 mmHg 40%
20:00 +30°C° 0 mm 6 mps 720 mmHg 42%
21:00 +29°C° 0 mm 6 mps 720 mmHg 43%
22:00 +29°C° 0 mm 6 mps 720 mmHg 45%
23:00 +28°C° 0 mm 6 mps 721 mmHg 47%
Show more